Simultaneous Nadir Overpasses (SNOs) Predictions

Prediction of SNOs between GOES-16 and METOP-B Satellite Orbit:

Table of predicted SNOs for the next 14.0 days since TLE Epoch: 3/13/2020
Index Date Time (GOES-16) GOES-16 Lat,Lon METOP-B Lat,Lon Distance(km) Time Diff (sec)
1 03/14/2020 02:26:04 0.02, -75.17 0.39, -73.61 178.17 80
2 03/15/2020 14:42:17 -0.02, -75.20 0.64, -78.17 339.09 80
3 03/16/2020 14:24:17 -0.03, -75.20 -0.45, -73.17 230.32 80
4 03/18/2020 02:40:38 0.03, -75.19 -0.52, -77.78 295.15 80
5 03/19/2020 02:22:39 0.03, -75.19 0.57, -72.78 274.74 80
6 03/20/2020 14:38:51 -0.03, -75.23 0.46, -77.34 241.09 80
7 03/21/2020 14:20:53 -0.03, -75.24 -0.70, -72.36 329.38 80
8 03/23/2020 02:39:53 0.03, -75.24 -0.33, -76.95 194.44 80
9 03/24/2020 02:19:14 0.02, -75.26 0.76, -71.95 376.46 80
10 03/25/2020 14:35:26 -0.02, -75.31 0.27, -76.52 138.08 80
11 03/26/2020 14:17:28 -0.03, -75.33 -0.88, -71.53 433.07 80




NCC Satellite Simultaneous Nadir Overpasses (SNOs) Prediction Service
